Location: Kelowna
(49.8880°N, 119.4960°W)
Time: 19:41:26
(UTC-07:00)

AO-27 - Pass Details

Date: 10 August 2024
Orbit: 783 x 796 km, 98.8° (Epoch: 19 September)

Event Time Altitude Azimuth Distance (km) Brightness Sun altitude
Exits shadow 22:44:47 - 210° (SSW) 3,074 10.5 -18.2°
Reaches altitude 10° 22:47:08 10° 224° (SW) 2,358 10.0 -18.4°
Maximum altitude 22:50:50 19° 270° (W) 1,798 9.9 -18.8°
Drops below altitude 10° 22:54:34 10° 316° (NW) 2,375 11.3 -19.1°
Sets 22:57:35 0° 333° (NNW) 3,312 12.5 -19.4°
